Lapse_Rate
5.4 5.1 4.9 4.9 5.2 5.5 5.9 5.9 6.1 6.0 6.0 5.9 5.9 5.8 6.2 6.4 6.4 6.4 6.5 6.3 6.1 6.0 5.9 6.0 5.9 6.1 6.0 5.9 6.2 6.3 6.4 6.4 6.3 6.3 6.4 6.4 6.5 6.4 6.3 6.3 6.3 6.2 6.1
5.5 5.3 5.0 5.0 5.2 5.5 5.5 5.7 5.9 5.9 5.8 5.7 5.4 5.8 6.5 6.1 6.2 6.3 6.3 6.1 6.0 5.8 6.0 6.0 6.0 5.9 5.9 5.9 6.1 6.3 6.4 6.4 6.3 6.3 6.4 6.5 6.5 6.6 6.4 6.3 6.2 6.1 6.1
5.5 5.5 5.2 5.2 5.1 5.4 5.7 5.7 5.7 5.4 5.3 5.7 5.7 5.8 6.2 6.1 6.1 6.2 6.2 6.0 5.9 5.7 5.8 6.1 6.0 6.0 5.9 6.0 6.1 6.3 6.4 6.5 6.4 6.3 6.5 6.6 6.6 6.6 6.7 6.5 6.5 6.3 6.0
5.5 5.4 5.3 4.9 5.1 5.2 5.8 5.6 5.4 5.6 6.0 5.6 5.6 5.9 6.0 6.1 6.0 6.1 6.1 6.1 6.0 5.6 5.7 5.9 6.0 5.9 6.0 6.1 6.2 6.4 6.5 6.5 6.5 6.5 6.6 6.7 6.8 6.8 6.9 6.6 6.5 6.5 6.2
5.3 5.3 5.2 4.8 5.0 5.0 5.7 5.9 5.7 5.8 5.9 5.9 5.8 5.8 6.0 6.0 5.8 5.8 5.8 5.9 5.9 5.7 5.6 5.7 5.8 5.7 5.7 5.8 6.2 6.4 6.5 6.5 6.6 6.5 6.5 6.7 6.9 6.9 6.8 6.6 6.3 6.3 6.2
5.3 5.1 5.2 4.7 4.7 4.6 5.5 5.8 5.6 5.8 6.0 5.6 5.5 5.7 5.6 5.6 5.6 5.5 5.4 5.6 5.7 5.8 5.8 5.6 5.7 5.7 5.7 6.0 6.3 6.4 6.6 6.7 6.6 6.7 6.6 6.7 6.7 6.8 6.8 6.7 6.5 6.3 6.1
5.2 5.1 4.6 4.8 5.0 5.1 5.3 5.1 5.2 5.2 5.5 5.6 5.5 5.4 5.1 5.2 5.5 5.5 5.5 5.3 5.4 5.3 5.4 5.7 5.7 5.8 5.9 6.0 6.2 6.3 6.6 6.5 6.8 7.0 6.8 6.8 6.6 6.8 6.8 6.8 6.5 6.6 6.5
5.2 5.0 4.8 4.8 5.1 5.1 4.7 4.5 4.8 5.0 5.2 5.4 5.8 5.4 5.5 5.3 5.4 5.5 5.4 5.2 5.1 5.0 5.1 5.3 5.5 5.7 5.7 5.9 6.0 6.3 6.5 6.6 6.9 7.0 7.0 6.9 6.9 6.8 6.8 6.7 6.6 6.7 6.4
5.1 5.0 5.2 5.1 4.9 4.9 4.9 4.7 5.1 4.8 5.2 5.0 5.6 5.3 5.4 5.5 5.4 5.5 4.9 5.3 5.0 5.1 5.0 5.1 5.3 5.5 5.6 5.8 6.1 6.3 6.3 6.3 6.7 6.8 6.8 7.0 6.9 6.7 6.6 6.6 6.5 6.4 6.2
5.1 5.3 5.1 5.1 4.9 4.5 4.7 4.8 4.6 5.1 5.3 5.4 5.5 5.4 5.3 5.1 5.1 5.4 5.5 5.5 5.1 5.1 5.1 5.0 5.1 5.3 5.5 5.6 5.8 6.0 6.1 6.1 6.4 6.3 6.4 6.7 7.0 6.8 6.7 6.4 6.3 6.3 6.0
5.1 5.1 5.2 5.1 5.3 5.2 5.2 4.7 4.8 4.7 4.9 5.1 5.3 5.4 5.6 5.5 5.2 5.1 5.1 5.1 5.6 5.7 5.2 5.5 5.1 5.2 5.3 5.6 6.0 6.2 6.2 6.3 6.2 6.1 6.2 6.4 6.5 6.6 6.7 6.5 6.4 6.3 6.0
5.2 5.1 5.2 5.4 5.3 5.2 5.1 5.0 4.8 4.5 4.0 4.8 5.0 5.2 5.3 5.5 5.6 5.0 5.4 5.1 4.7 5.1 5.3 5.4 5.3 5.4 5.6 5.9 6.0 6.1 6.3 6.2 6.1 6.2 6.3 6.2 6.0 6.1 6.3 6.3 6.2 6.3 6.3
5.2 5.3 5.5 5.4 5.3 5.5 5.3 5.1 4.9 4.7 4.7 4.2 4.5 5.0 5.2 5.4 4.9 4.9 4.7 4.9 5.2 5.0 5.0 5.2 5.5 5.6 5.8 5.9 5.9 5.8 5.8 5.9 6.0 6.0 6.0 5.9 5.9 6.1 6.1 6.0 6.0 6.0 6.1
5.4 5.5 5.7 5.6 5.2 5.3 5.2 5.3 4.9 4.7 4.7 4.9 4.7 4.3 4.6 4.9 4.6 4.7 5.1 5.0 4.9 4.9 5.0 5.4 5.8 5.9 6.1 6.2 5.8 5.7 5.8 5.8 5.9 5.8 5.8 5.8 5.8 5.8 5.8 5.9 5.7 5.6 5.7
5.6 5.5 5.6 5.5 5.3 5.3 5.3 5.3 5.2 5.0 4.9 4.9 5.0 5.0 4.8 5.0 4.6 4.8 5.0 4.8 4.8 5.0 5.2 5.8 5.6 5.8 5.9 5.7 5.8 5.7 5.8 6.0 6.0 5.8 5.8 5.9 5.8 5.9 5.9 5.9 5.8 5.9 5.9
5.7 5.3 5.0 5.3 5.2 5.2 5.3 5.3 5.4 5.2 5.2 5.1 5.2 5.3 5.4 5.4 4.9 5.0 5.1 4.7 4.9 4.9 5.0 5.9 6.0 5.8 5.7 5.8 5.8 5.6 5.6 5.7 5.6 5.8 5.9 5.7 5.7 5.8 5.8 5.8 5.6 5.9 5.9
6.1 5.7 5.3 4.9 4.9 4.9 5.1 5.4 5.6 5.8 5.8 5.8 5.6 5.3 5.2 5.2 5.4 5.3 5.1 5.0 4.9 5.0 4.9 6.1 6.3 6.3 5.9 5.9 6.0 6.0 5.8 5.6 5.6 5.6 5.7 5.9 5.9 6.0 5.9 5.9 5.8 5.9 5.9
6.3 6.1 5.8 5.6 5.4 5.0 5.1 4.9 5.0 5.2 5.1 5.2 5.2 5.0 5.0 5.0 5.2 5.1 5.2 5.2 5.1 5.2 5.1 5.3 5.8 5.9 6.0 5.9 5.7 5.6 5.6 5.6 5.6 5.9 6.1 6.2 6.2 6.2 6.0 6.1 6.5 6.4 6.3
6.4 6.2 6.2 6.2 6.0 5.9 5.7 5.5 5.2 5.4 5.1 5.0 5.2 5.1 5.1 5.1 5.2 5.2 5.2 5.3 5.2 5.1 5.1 5.0 5.4 5.7 5.5 5.6 5.5 5.4 5.8 6.2 6.3 6.4 6.2 6.4 6.6 6.5 6.5 6.5 6.3 6.2 6.5
7.3 7.1 6.9 6.6 6.4 6.2 6.1 6.0 6.1 6.1 6.1 6.2 5.9 5.9 5.7 5.4 5.8 5.4 5.4 5.5 5.5 5.5 5.6 5.4 5.5 5.5 5.5 5.5 5.5 5.9 6.4 6.5 6.4 6.4 6.6 6.6 6.6 6.5 6.3 6.2 6.1 5.9 5.8
7.4 7.3 7.2 7.2 7.2 7.2 7.1 6.9 6.7 6.6 6.6 6.5 6.6 6.6 6.5 6.4 6.5 6.4 5.9 6.2 6.1 5.9 5.9 5.8 5.7 5.8 5.8 6.0 6.4 6.8 6.8 7.0 6.8 7.0 7.1 7.2 7.0 6.7 6.6 6.3 6.1 6.1 6.0
7.2 7.0 7.1 7.2 6.9 7.2 7.3 7.2 7.1 7.1 6.9 6.8 6.7 6.6 6.7 6.7 6.8 6.8 6.6 6.5 6.4 6.2 6.2 6.0 6.1 5.9 6.2 6.4 6.5 6.7 7.2 7.2 7.2 7.6 7.3 7.2 7.4 7.2 7.0 6.8 6.8 6.5 6.0
7.3 7.3 7.3 7.2 7.2 7.1 7.0 6.9 6.9 6.3 6.3 6.5 6.9 7.3 7.4 7.4 7.5 7.4 7.4 7.2 7.0 6.8 6.5 6.2 6.0 6.5 6.6 6.5 6.1 6.2 6.3 6.7 7.1 6.8 6.9 7.1 7.0 7.1 6.7 6.6 6.4 6.6 6.6
7.4 7.2 7.2 7.0 7.0 7.1 7.2 7.4 7.5 7.4 7.2 7.3 7.2 7.2 7.1 7.1 6.9 6.8 7.1 7.1 7.3 7.4 7.2 6.7 6.3 6.2 5.9 6.1 6.3 6.4 6.2 6.0 6.4 6.7 6.8 6.2 6.1 6.1 6.1 6.1 6.0 5.8 5.9
7.5 7.5 7.5 7.3 7.2 7.1 7.2 7.3 7.5 7.5 7.3 7.3 7.4 7.3 7.0 6.7 6.6 6.7 6.4 6.4 6.5 6.4 6.4 6.6 6.8 6.4 6.0 6.0 6.6 6.2 5.9 5.8 6.2 5.8 6.0 6.2 6.1 5.8 5.7 6.0 6.1 5.7 5.6
6.9 7.2 7.4 7.4 7.5 7.6 7.7 7.9 8.0 7.7 7.3 7.0 7.0 6.9 6.9 6.6 6.5 6.6 6.7 6.5 6.2 6.0 6.1 6.4 6.4 6.6 6.6 6.2 6.7 6.5 6.4 6.4 6.3 5.3 6.2 6.2 6.2 5.9 5.6 5.7 5.6 5.0 4.7
Wind_Speed
9 12 11 12 13 15 10 9 13 14 13 12 14 13 13 12 14 15 16 18 18 17 18 17 16 17 17 17 17 17 16 16 15 15 15 13 13 13 13 13 12 12 11
8 8 7 9 10 16 12 11 11 10 9 13 10 11 12 13 13 15 16 17 17 16 16 17 17 16 16 16 17 16 15 15 14 14 14 13 12 13 13 12 12 11 10
13 11 8 7 11 14 14 12 9 11 8 9 8 10 11 11 12 12 15 17 17 18 16 16 16 17 18 16 16 15 15 14 14 14 14 13 12 12 12 12 11 11 9
18 11 9 8 14 14 12 6 7 6 6 6 5 5 8 10 10 12 13 15 16 16 16 16 15 15 15 16 16 15 15 14 14 14 13 12 12 12 12 12 12 11 11
17 13 8 8 18 11 7 6 3 7 7 5 6 5 6 5 9 9 10 12 16 16 15 17 17 15 15 15 15 15 15 15 15 13 13 13 13 12 13 14 13 13 11
18 12 8 9 15 9 8 7 8 3 5 7 6 5 3 3 6 5 7 10 12 15 17 16 17 17 17 15 16 16 16 16 15 14 15 15 16 16 16 16 15 15 15
18 11 8 9 9 10 10 8 6 9 3 6 6 4 4 3 4 2 3 5 7 11 14 16 17 18 18 20 18 17 18 18 18 18 18 18 19 19 19 18 17 17 18
15 8 9 9 10 8 10 11 10 3 3 7 3 4 3 1 2 3 3 3 6 9 10 14 16 17 19 19 20 22 22 21 20 21 21 22 22 22 21 21 21 22 21
14 13 9 8 9 8 8 10 7 7 5 4 8 4 3 3 3 3 6 5 5 5 10 12 14 17 19 20 21 23 28 27 24 23 23 25 26 26 26 26 26 25 25
11 14 13 9 8 6 8 9 8 4 5 9 1 0 2 5 3 2 2 4 6 8 8 11 14 18 20 20 22 24 27 34 34 29 26 26 27 29 30 31 30 29 29
10 13 14 10 10 8 7 9 8 6 4 6 3 3 1 2 2 3 3 2 1 6 9 12 16 16 19 22 21 25 32 35 36 36 33 32 32 30 30 33 33 33 35
6 9 11 11 7 6 7 7 7 8 7 4 6 4 4 4 3 3 0 3 4 4 9 8 11 17 20 21 26 30 33 36 39 38 35 34 35 36 36 34 35 36 38
6 9 11 10 9 9 6 6 7 6 6 4 6 7 4 5 4 3 3 3 3 3 3 6 11 19 20 21 25 31 32 38 38 39 37 36 36 37 37 38 38 38 38
6 9 8 8 8 8 9 8 6 5 4 3 4 4 4 6 4 4 4 5 4 4 3 6 5 15 19 22 26 30 28 34 40 41 39 37 38 36 36 37 38 39 39
6 8 9 10 10 10 9 11 9 10 8 8 6 4 4 5 5 6 4 4 8 8 7 4 5 10 15 17 25 23 24 28 36 40 40 38 36 36 36 37 38 37 36
5 8 9 9 10 10 9 10 8 11 12 9 8 10 8 9 5 4 7 6 5 9 10 6 8 6 10 13 23 22 23 31 33 37 38 37 36 35 35 35 36 36 36
6 9 11 10 9 10 11 10 10 10 11 11 12 12 14 13 11 11 8 8 9 8 11 12 5 5 6 10 11 19 22 21 23 32 37 39 39 37 35 36 35 35 34
5 5 7 9 10 11 12 13 12 11 11 13 14 14 16 11 15 15 10 13 12 11 10 16 13 9 8 10 11 11 12 19 20 27 35 35 35 33 35 35 34 34 34
9 8 7 7 9 11 12 13 15 15 15 15 16 17 17 17 17 12 12 11 10 9 10 10 13 10 10 4 8 10 11 9 15 25 27 33 33 33 33 31 32 31 30
9 11 11 11 12 12 11 12 13 15 15 16 16 18 17 18 19 17 14 15 13 11 11 10 11 12 12 10 4 10 11 7 10 15 24 28 25 28 28 28 27 28 28
9 9 9 10 11 12 11 14 15 15 14 15 15 16 17 18 21 20 14 16 15 13 12 13 14 13 12 12 11 13 12 12 13 9 10 8 8 9 14 21 21 23 22
11 11 12 13 12 11 13 17 17 15 16 17 17 17 17 17 21 22 22 26 23 17 17 15 16 17 19 16 14 12 13 13 14 5 8 8 1 2 4 7 8 12 15
7 9 7 9 12 14 13 16 19 17 17 17 18 18 17 15 17 19 21 22 22 21 26 22 21 19 21 18 17 17 15 15 15 2 3 2 2 5 6 13 21 21 22
8 7 8 10 10 8 24 19 17 15 17 20 20 20 19 20 20 19 18 18 17 17 20 16 22 18 8 8 6 6 8 4 6 4 4 3 2 4 5 13 24 26 26
7 8 10 11 12 11 24 19 13 8 12 18 18 18 19 21 23 19 18 20 18 2 13 11 17 17 16 17 8 3 3 3 2 2 5 2 1 3 4 6 14 20 22
8 7 9 10 15 11 23 22 15 5 5 7 7 12 18 12 12 10 8 16 18 6 9 8 9 11 13 16 23 12 5 3 3 3 6 4 2 2 3 3 5 10 10
Wind_Direction
173 166 158 147 158 137 143 141 141 139 128 132 131 142 134 138 142 145 160 159 157 157 162 162 160 159 157 158 151 148 146 147 147 144 141 141 143 143 143 140 140 138 141
165 169 168 155 156 151 146 148 150 144 135 141 134 148 146 140 147 154 161 164 158 166 169 168 167 168 167 166 160 158 154 154 155 155 153 156 159 157 157 153 151 152 155
176 170 157 155 151 144 136 132 122 119 132 143 133 149 136 138 150 162 164 163 173 173 175 173 178 176 177 174 171 165 166 165 169 170 168 170 171 170 168 164 167 169 170
178 168 153 156 145 145 145 146 141 130 137 134 154 150 138 142 154 164 172 169 174 178 181 182 185 189 188 180 179 176 178 179 183 184 180 181 184 184 185 182 182 186 185
168 161 146 153 146 147 154 157 135 151 142 141 149 144 141 143 157 166 179 181 182 186 185 188 191 197 198 196 189 189 189 192 195 195 194 196 200 198 201 201 197 200 201
151 142 145 149 151 153 161 160 164 127 148 148 134 105 104 105 146 162 183 190 195 197 196 197 198 201 203 206 205 203 204 205 206 206 209 208 211 212 214 212 209 211 212
140 144 145 150 146 158 166 159 163 156 98 127 106 64 52 92 126 149 176 196 205 218 212 209 209 210 214 214 214 217 220 219 217 217 220 220 220 220 220 221 219 223 224
131 137 147 162 154 148 156 163 161 156 118 166 129 121 135 91 185 185 184 202 217 221 225 225 221 221 223 221 222 224 229 229 228 228 226 225 224 225 225 227 227 229 230
152 150 158 153 156 160 165 166 164 173 147 192 173 140 137 190 148 162 212 198 209 216 235 227 224 225 226 227 228 230 232 235 238 239 235 227 224 223 224 228 231 232 234
159 159 161 159 166 160 170 180 170 172 148 176 185 311 110 139 162 166 208 207 214 227 223 228 228 227 227 230 231 228 231 235 236 238 241 244 236 229 228 228 228 229 232
166 163 169 169 181 169 174 171 170 166 159 171 156 140 117 94 88 145 172 197 247 230 228 220 224 230 229 230 233 234 235 236 238 237 237 239 242 242 238 234 234 231 229
172 172 156 169 168 159 164 174 181 179 184 163 184 162 160 163 174 132 142 132 213 229 224 223 221 227 230 227 230 233 234 236 238 239 237 237 240 241 241 240 238 236 234
171 176 168 171 178 186 173 164 174 179 155 163 181 199 187 185 152 163 156 189 217 258 256 228 223 226 229 229 233 232 234 237 239 239 239 239 239 240 240 241 242 242 240
182 176 176 164 171 182 182 178 176 154 147 176 201 220 238 211 176 170 168 184 233 243 238 238 215 223 226 227 233 236 235 238 239 239 239 239 239 238 239 241 242 243 244
183 175 179 170 171 169 172 173 188 204 205 217 212 218 233 255 239 199 182 181 207 236 244 245 233 208 220 221 232 231 234 243 243 241 242 240 240 239 239 239 241 241 243
167 166 178 175 176 178 179 180 186 190 193 203 207 213 227 237 247 231 221 218 210 231 254 241 232 225 208 223 237 232 232 239 247 247 246 245 244 243 242 239 239 239 240
167 168 174 174 181 195 192 200 204 197 199 206 211 214 227 234 237 237 227 225 228 223 240 256 231 221 210 220 233 227 234 235 242 246 247 246 244 243 242 240 238 237 237
183 184 177 177 187 192 200 207 215 217 213 218 221 224 227 228 232 232 227 227 227 226 231 251 254 249 221 231 239 235 236 233 233 243 243 243 243 241 240 237 233 233 235
189 188 191 196 199 202 206 211 213 216 217 221 224 227 227 229 234 231 227 230 230 235 230 237 251 253 254 210 236 245 247 244 234 244 248 246 243 242 241 237 235 234 236
199 204 209 210 213 214 215 217 218 223 226 227 227 230 229 231 235 236 232 234 237 238 233 232 241 251 253 248 226 255 257 230 247 240 241 242 238 239 238 236 232 233 235
217 214 214 221 224 223 223 224 226 226 228 233 236 236 235 233 233 231 234 238 236 237 240 244 250 251 250 250 241 252 248 255 250 231 241 227 228 233 239 236 241 236 234
229 227 229 229 226 229 224 219 224 233 238 240 242 241 241 236 239 235 226 234 236 235 238 243 248 249 251 251 253 241 245 250 262 194 228 229 26 73 42 9 272 234 228
357 8 335 274 253 247 243 229 220 233 238 236 238 243 247 246 241 245 240 235 243 241 241 248 251 248 255 248 247 247 244 241 250 235 136 141 37 76 55 42 57 72 75
5 360 357 0 3 30 5 359 346 254 244 244 244 246 247 251 248 245 246 246 235 237 242 246 250 267 325 316 299 279 270 253 66 49 3 132 108 74 65 73 75 76 71
8 23 34 25 20 12 4 355 344 319 269 249 247 248 245 249 252 244 245 251 249 178 59 61 82 65 48 43 47 142 191 138 152 47 8 85 75 95 74 81 62 70 73
35 43 51 42 35 25 13 8 356 297 282 305 331 33 16 355 328 298 270 252 248 161 113 83 70 66 51 49 51 44 14 100 100 63 7 16 7 80 100 55 43 46 55